INTELSAT 33E DEB, 64405

Orbit data source: Space-Track

INTELSAT 33E DEB, 64405 is space debris in GEO originally from a launch on Wed, 24 Aug 2016 UTC launched from the French Guiana (FRGUI). Debris objects in space refer to the collection of defunct objects orbiting the Earth. Examples of debris include non-operational satellites, rocket bodies, and fragments generated from explosions, collisions, or faulty payload assembly.

Not visible in the next 10 days
Identifier
64405, 2016-053AK
Orbit
GEO
Country
Flag of USUS / ITSO
Related business
Manufacturer
Boeing/ES
Mission
Spacecraft
Bus & Motor
Unknown
Mass
Unknown
Launch date (UTC)
2016-08-24 (10 years ago)
Launch vehicle
Unknown
Launch site
French Guiana (FRGUI)
Object type
Payload
Rocket body
Debris
Shape & HBR
Unknown shape, 1.1 m
Radar Cross Section
RCS unknown

Expand to show TLE details & history
Last TLE update: 20 hours ago

TLE from 20 hours ago
0 INTELSAT 33E DEB
1 64405U 16053AK  26165.99620672 -.00000012  00000-0  00000-0 0  9999
2 64405   1.7237  92.6664 0081400  20.2599 339.1521  0.99506724  5881
Epoch: 2026-06-14T23:54Z
TLE epoch observation values (Epoch: 2026-06-14T23:54:32.260Z)
Latitude
-0°
Longitude
-170.17423°
Altitude
35,678.464 km
Speed
3.09 km/s
True Right ascension
06h 06m 59s
True Declination
0° 00' 00"
Sunlit
Object was in daylight at epoch
Visualization orbit readout
Latitude
Unknown
Longitude
Unknown
Altitude
Unknown
Speed
Unknown
Apparent Right ascension
Unknown
Apparent Declination
Unknown
Sunlit
N/A
Visualization observer readout
Local Sidereal Time
06:35:43
Azimuth
Unknown
Elevation
Unknown
Doppler factor
Unknown
Orbital elements
Apogee altitude
36,348.493 km
Perigee altitude
35,658.52 km
Semi-major axis
42,381.643 km
Eccentricity
0.00814
Inclination
1.7237°
RAAN
92.6664°
Arg. of periapsis
20.2599°
True anomaly
338.81695°
Mean anomaly
339.1521°
Eccentric anomaly
338.98485°
Mean motion
0.24876 °/min
Orbital period
1,447.19 mins
BSTAR
0
Loading maneuver chart data...
Computing Atmospheric mass density...
Loading historical data...
Loading historical data...
Loading historical data...
Loading historical data...
Loading historical data...
Loading historical data...
Loading historical data...

Documentation

Showing up to 5 results
|